Content
SEND FEEDBACK

Daily
Averages
Monthly
Summary
United States of America

MOUNT SHASTA, CALIFORNIA


Home > North America > United States > California
Elevation: 3679 feet     Latitude: 41 19N     Longitude: 122 19W

WEATHER
 
SELECT A DAY
Number of Records: 231,538;   Date Range: 1/1/95 - 9/3/14
 
SHARE

PRINT THIS DATA

[ ← Previous Day ]
WEATHER ALMANAC - JUNE 7, 2014
[ Next Day → ]
[ °C ]   °F
Weather ElementAverageHighLow
Temperature69.6 °F82.9 °F (2:56 pm)55 °F (4:56 am)
Dewpoint38 °F42.1 °F (3:56 pm)34 °F (3:56 am)
Humidity32.8 %47 % (4:56 am)20 % (5:56 pm)
Barometer29.99 in30.04 in (11:56 pm)29.95 in (2:56 pm)
Wind Speed6 mph11.5 mph (2:56 pm)
Wind Gust20.7 mph (1:56 pm)
Weather ElementAverage
Visibility10 mi
Wind DirectionESE (109.1 °)

Weather ElementTotal
Precipitation---
Cooling Degree Days4 (Base 65)
Growing Degree Days19 (Base 50)
Averaged from 23 records on June 7, 2014
WEATHER CONDITIONS BREAKOUT
WIND DIRECTION BREAKOUT
WEATHER BY HOUR - JUNE 7, 2014
[ °C ]   °F
Local TimeTemperatureDewpointHumidityBarometerVisibilityWind DirectionWind SpeedGust SpeedPrecipitationEventsConditions
1:56 AM62.1 °F35.1 °F37 %29.96 in10.0 miVariable3.5 mphClear
2:56 AM60.1 °F35.1 °F39 %29.96 in10.0 miCalmClear
3:56 AM59.0 °F34.0 °F39 %29.96 in10.0 miCalmClear
4:56 AM55.0 °F35.1 °F47 %29.99 in10.0 miCalmClear
5:56 AM55.9 °F34.0 °F44 %30.00 in10.0 miVariable4.6 mphClear
6:56 AM59.0 °F35.1 °F41 %30.01 in10.0 miVariable5.8 mphClear
7:56 AM63.0 °F36.0 °F37 %30.01 in10.0 miVariable5.8 mphClear
8:56 AM66.9 °F37.9 °F34 %30.01 in10.0 miVariable5.8 mphClear
9:56 AM70.0 °F39.0 °F32 %30.01 in10.0 miVariable4.6 mphClear
10:56 AM73.9 °F39.9 °F29 %30.00 in10.0 miNW (320°)9.2 mph17.3 mphClear
11:56 AM75.9 °F39.9 °F27 %29.99 in10.0 miNW (310°)10.4 mph18.4 mphClear
12:56 PM78.1 °F41.0 °F27 %29.97 in10.0 miWNW (300°)8.1 mph18.4 mphClear
1:56 PM80.1 °F41.0 °F25 %29.96 in10.0 miWNW (300°)10.4 mph20.7 mphClear
2:56 PM82.9 °F41.0 °F23 %29.95 in10.0 miWNW (300°)11.5 mph20.7 mphClear
3:56 PM82.9 °F42.1 °F24 %29.95 in10.0 miNW (320°)8.1 mphClear
4:56 PM81.0 °F37.0 °F21 %29.96 in10.0 miWNW (290°)8.1 mphClear
5:56 PM79.0 °F34.0 °F20 %29.96 in10.0 miVariable6.9 mphClear
6:56 PM77.0 °F35.1 °F22 %29.96 in10.0 miNorthClear
7:56 PM73.0 °F39.0 °F29 %29.97 in10.0 miVariable5.8 mphClear
8:56 PM70.0 °F39.9 °F33 %29.99 in10.0 miNNW (340°)8.1 mphClear
9:56 PM66.9 °F41.0 °F39 %30.02 in10.0 miVariable4.6 mphClear
10:56 PM66.0 °F41.0 °F40 %30.03 in10.0 miNNE (30°)4.6 mphClear
11:56 PM63.0 °F41.0 °F45 %30.04 in10.0 miVariable5.8 mphClear
Hourly data recorded from KMHS, located miles away from Mount Shasta, California







STORIES FROM OUR PARTNERS